AirNav   Air Wisconsin Up To $57,000 Bonus
 
 1213 users online  

FA44 Willis Gliderport
Boynton Beach, Florida, USA

GOING TO BOYNTON BEACH?


FAA INFORMATION EFFECTIVE 15 JULY 2021

Location

FAA Identifier: FA44
Lat/Long: 26-32-53.2540N 080-12-53.1660W
26-32.887567N 080-12.886100W
26.5481261,-80.2147683
(estimated)
Elevation: 18 ft. / 5.5 m (surveyed)
Variation: 03W (1985)
From city: 7 miles W of BOYNTON BEACH, FL
Time zone: UTC -4 (UTC -5 during Standard Time)
Zip code: 33467

Gliderport Operations

Gliderport use: Private use. Permission required prior to landing
Activation date: 07/1975
Control tower: no
ARTCC: MIAMI CENTER
FSS: MIAMI FLIGHT SERVICE STATION
Attendance: UNATNDD
Wind indicator: yes
Segmented circle: no

Gliderport Communications

WX AWOS-3PT at LNA (7 nm E): 119.925 (561-964-0308)
WX ASOS at PBI (10 nm NE): 123.75 (561-683-2548)
WX AWOS-3 at BCT (12 nm SE): 121.125 (561-391-2696)
WX AWOS-3 at F45 (18 nm N): 119.975 (561-630-6932)
WX ASOS at PMP (19 nm S): 120.55 (954-783-3720)

Nearby radio navigation aids

VOR radial/distance  VOR name  Freq  Var
PBIr224/10.5PALM BEACH VORTAC115.7003W
FLLr001/28.6FORT LAUDERDALE VOR/DME114.4006W
PHKr119/29.2PAHOKEE VOR/DME115.4000E

 
NDB name  Hdg/Dist  Freq  Var  ID
UNITED168/22.640505WUTX ..- - -..-

Gliderport Services

Runway Information

Runway 9/27

Dimensions: 3600 x 150 ft. / 1097 x 46 m
Surface: turf
RUNWAY 9  RUNWAY 27
Traffic pattern: rightright
Obstructions: pline, 1000 ft. from runwaytrees, 1000 ft. from runway

Gliderport Ownership and Management from official FAA records

Ownership: Privately-owned
Owner: WILLIS GLIDERPORT ASSOCIATION
10640 DENOEU ROAD
BOYNTON BEACH, FL 33437
Phone (561) 738-9360
WILLIS GLIDERPORT PROPERTY OWNERS ASSOCIATION.
Manager: TERRY ROBERTSON
10618 DENOEU RD.
BOYNTON BEACH, FL 33472
Phone (561) 738-9360

Gliderport Operational Statistics

Aircraft based on the field: 67
Single engine airplanes: 58
Multi engine airplanes: 2
Helicopters: 3
Gliders airplanes: 3
Ultralights: 1
    

Additional Remarks

FOR CD CTC PALM BEACH APCH AT 561-275-1430

Instrument Procedures

There are no published instrument procedures at FA44.

Some nearby airports with instrument procedures:

KLNA - Palm Beach County Park Airport (7 nm E)
KPBI - Palm Beach International Airport (10 nm NE)
KBCT - Boca Raton Airport (12 nm SE)
F45 - North Palm Beach County General Aviation Airport (18 nm N)
KPMP - Pompano Beach Airpark (19 nm S)
 
Loc | Ops | Rwys | IFR | FBO | Links
Com | Nav | Svcs | Stats | Notes

Reliance Aviation
AirBoss

 
Area around FA44 (Willis Gliderport)
 
Road maps at: MapQuest Bing Google
 
Aerial photo
WARNING: Photo may not be current or correct
Aerial photo of FA44 (Willis Gliderport)
Taken in July 2007
approaching runway 27

Do you have a better or more recent aerial photo of Willis Gliderport that you would like to share? If so, please send us your photo.

 
Sectional chart

 
Airport distance calculator
Flying to Willis Gliderport? Find the distance to fly.

From to FA44

Sunrise and sunset
Times for 30-Jul-2021
 Local
(UTC-4)
 Zulu
(UTC)
Morning civil twilight06:2110:21
Sunrise06:4610:46
Sunset20:0900:09
Evening civil twilight20:3400:34

Current date and time
Zulu (UTC)  30-Jul-2021 22:41:01
Local (UTC-4)  30-Jul-2021 18:41:01
 
METAR
KPBI 
10nm NE 
302153Z 15011KT 10SM SCT026 SCT044 SCT075 32/24 A3004 RMK AO2 SLP171 T03170239
KBCT 
12nm SE 
302147Z 14013KT 10SM SCT025 32/24 A3004 RMK ATIS X
KPMP 
19nm S 
302153Z 16010KT 10SM CLR 32/23 A3003 RMK AO2 SLP170 T03220228
TAF
KPBI 
10nm NE 
301744Z 3018/3118 15010KT P6SM VCTS SCT030CB BKN050 FM310100 VRB03KT P6SM FEW025 SCT050 FM311700 16008KT P6SM VCTS FEW035CB SCT150
NOTAMs
Click for the latest NOTAMs
NOTAMs are issued by the DoD/FAA and will open in a separate window not controlled by AirNav.

 

 
 

Would you like to see your business listed on this page?

 If your business provides an interesting product or service to pilots, flight crews, aircraft, or users of the Willis Gliderport, you should consider listing it here.  To start the listing process, click on the button below
 
Add a business
 

Other Pages about Willis Gliderport

Update a link
 
Copyright © AirNav, LLC. All rights reserved. Privacy Policy  Contact